Regional Weather Roundup
Issued by NWS Albany, NY

Home | Current Version | Previous Version | Text Only | Print | Product List | Glossary On
Versions: 1 2 3 4 5 6 7 8 9 10 11 12 13 14 15 16 17 18 19 20 21 22 23 24 25 26 27 28 29 30 31 32 33 34 35 36 37 38 39 40 41 42 43 44 45 46 47 48 49 50
079
ASUS41 KALY 052310
RWRALY

NEW YORK STATE HOURLY WEATHER ROUNDUP
NATIONAL WEATHER SERVICE ALBANY NY
600 PM EST FRI FEB 05 2016

NOTE: "FAIR" INDICATES FEW OR NO CLOUDS BELOW 12,000 FEET WITH NO
SIGNIFICANT WEATHER AND/OR NO OBSTRUCTIONS TO VISIBILITY.

NYZ032-033-038>043-046>054-057>066-NYZ062>081-060000-
EAST


CITY           SKY/WX    TMP DP  RH WIND       PRES   REMARKS
ALBANY         PTCLDY    34  10  37 NW17G28   30.21R WCI  23
GLENS FALLS    CLEAR     29  18  63 CALM      30.21R
POUGHKEEPSIE   CLEAR     38   8  29 NW10      30.20R WCI  31
NEWBURGH       CLEAR     34  12  40 NW16G23   30.20R WCI  23
MONTGOMERY     CLEAR     35  12  38 NW16G24   30.21R WCI  25
WHITE PLAINS   CLEAR     36  13  38 NW17      30.17R WCI  26
ISLIP          PTCLDY    34  21  59 NW12      30.16R WCI  25
NEW YORK CITY  PTCLDY    39  17  41 NW18G26   30.22R WCI  30
CENTRAL PARK   CLEAR     37  15  40 W13G21    30.24R WCI  29
$$

NYZ005>009-017-018-044>046-055-056-060000-
CENTRAL


CITY           SKY/WX    TMP DP  RH WIND       PRES   REMARKS
FULTON         PTCLDY    30  19  63 CALM      30.30R
SYRACUSE       PTCLDY    27  17  66 NW7       30.30R WCI  19
ROME           PTCLDY    26  13  57 W7        30.31R WCI  18
ELMIRA         MOCLDY    32  18  56 N9        30.29R WCI  24
BINGHAMTON     MOCLDY    26  15  63 NW9       30.23R WCI  17
MONTICELLO     CLEAR     28  12  50 NW18G24   30.21R WCI  16
$$

NYZ026>034-041>043-060000-
NORTH


CITY           SKY/WX    TMP DP  RH WIND       PRES   REMARKS
WATERTOWN      PTCLDY    27  15  61 S6        30.29R WCI  20
FORT DRUM      NOT AVBL
MASSENA        CLEAR     26  11  52 W8        30.27R WCI  18
SARANAC LAKE   CLEAR     20   9  62 VRB6      30.15R WCI  12
PLATTSBURGH    CLEAR     25  11  55 NW6       30.22R WCI  18
$$

NYZ001>004-010>016-019>021-060000-
WEST


CITY           SKY/WX    TMP DP  RH WIND       PRES   REMARKS
NIAGARA FALLS  PTCLDY    31  22  69 SW12      30.31R WCI  22
BUFFALO        MOCLDY    31  22  69 W15G21    30.32R WCI  20
DUNKIRK        MOCLDY    29  21  72 SW12      30.35R WCI  19
JAMESTOWN      CLOUDY    27  14  59 W7        30.28R WCI  19
WELLSVILLE     CLOUDY    24  14  65 W14       30.27R WCI  12
ROCHESTER      FLURRIES  31  22  69 W8        30.32R WCI  23
PENN YAN       CLOUDY    31  19  61 VRB7      30.29R WCI  24
$$

             KEY
       WCI = WIND CHILL INDEX
       VSB = VISIBILITY
       HX  = HEAT INDEX
$$




USA.gov is the U.S. government's official web portal to all federal, state and local government web resources and services.